VLG5YB LIRQ-LICC

Flight info

Callsign VLG5YB
Flight time 1h 18m
Altitude 39000
Route KUGIX L995 IBRID DCT AMTEL DCT SOVAN DCT GIKIN DCT RIFFI DCT ENSOT DCT VAKOR DCT PELEN DCT UXUTA DCT LIBRO
Aircraft A320/M-SDE3FGHIRWY/LB1

Departure

Time 2026-04-22 16:10
Airport Florence Airport, Peretola (LIRQ)

Arrival

Time 2026-04-22 17:28
Airport Catania-Fontanarossa Airport (LICC)
Time Latitude Longitude Altitude Speed Heading
2026-04-22 15:54 43.80420 11.20047 135 ft 0 kts 86°
2026-04-22 16:06 43.80421 11.20061 135 ft 4 kts 86°
2026-04-22 16:06 43.80441 11.20102 136 ft 6 kts 13°
2026-04-22 16:07 43.80471 11.20081 136 ft 3 kts 355°
2026-04-22 16:07 43.80479 11.20073 137 ft 1 kts 300°
2026-04-22 16:07 43.80450 11.20005 135 ft 12 kts 228°
2026-04-22 16:07 43.80410 11.19914 133 ft 8 kts 290°
2026-04-22 16:08 43.80426 11.19881 132 ft 0 kts 314°
2026-04-22 16:08 43.80432 11.19873 132 ft 3 kts 315°
2026-04-22 16:08 43.80480 11.19812 128 ft 12 kts 317°
2026-04-22 16:09 43.80534 11.19787 130 ft 6 kts 31°
2026-04-22 16:09 43.80542 11.19799 126 ft 0 kts 48°
2026-04-22 16:09 43.80543 11.19800 126 ft 6 kts 48°
2026-04-22 16:10 43.80797 11.20195 138 ft 101 kts 48°
2026-04-22 16:10 43.81400 11.21127 302 ft 157 kts 49°
2026-04-22 16:10 43.81865 11.21848 734 ft 167 kts 47°
2026-04-22 16:10 43.83306 11.22568 2139 ft 172 kts 354°
2026-04-22 16:11 43.84283 11.21820 3329 ft 155 kts 316°
2026-04-22 16:11 43.84726 11.20496 4193 ft 155 kts 280°
2026-04-22 16:11 43.84512 11.19021 4736 ft 163 kts 242°
2026-04-22 16:11 43.83852 11.17868 5172 ft 165 kts 232°
2026-04-22 16:12 43.83183 11.16536 5473 ft 182 kts 246°
2026-04-22 16:12 43.82619 11.14895 5908 ft 190 kts 250°
2026-04-22 16:12 43.82108 11.13302 6772 ft 172 kts 250°
2026-04-22 16:12 43.81625 11.11820 7384 ft 168 kts 250°
2026-04-22 16:13 43.81135 11.10341 7890 ft 169 kts 251°
2026-04-22 16:13 43.80892 11.08791 8418 ft 161 kts 279°
2026-04-22 16:13 43.80990 11.07276 8980 ft 158 kts 280°
2026-04-22 16:13 43.81069 11.05751 9488 ft 159 kts 279°
2026-04-22 16:14 43.81139 11.04215 10034 ft 160 kts 279°
2026-04-22 16:14 43.81356 11.02710 10366 ft 164 kts 309°
2026-04-22 16:14 43.82252 11.01782 10736 ft 167 kts 344°
2026-04-22 16:14 43.83444 11.01789 11086 ft 183 kts 19°
2026-04-22 16:15 43.84434 11.02973 11453 ft 204 kts 60°
2026-04-22 16:15 43.84601 11.05000 11886 ft 224 kts 96°
2026-04-22 16:15 43.84214 11.07169 12247 ft 243 kts 104°
2026-04-22 16:15 43.83649 11.09481 12619 ft 261 kts 107°
2026-04-22 16:16 43.83238 11.11063 13029 ft 267 kts 107°
2026-04-22 16:16 43.82606 11.13509 13763 ft 272 kts 106°
2026-04-22 16:16 43.81978 11.16000 14430 ft 276 kts 105°
2026-04-22 16:16 43.81163 11.18437 15068 ft 284 kts 122°
2026-04-22 16:17 43.79826 11.20497 15636 ft 295 kts 142°
2026-04-22 16:17 43.78025 11.21954 16031 ft 308 kts 158°
2026-04-22 16:17 43.76012 11.23181 16402 ft 325 kts 158°
2026-04-22 16:17 43.73894 11.24492 16756 ft 342 kts 158°
2026-04-22 16:18 43.71812 11.25794 17079 ft 358 kts 157°
2026-04-22 16:18 43.69495 11.27254 17392 ft 374 kts 157°
2026-04-22 16:18 43.67075 11.28782 17686 ft 391 kts 158°
2026-04-22 16:18 43.64562 11.30362 18141 ft 401 kts 158°
2026-04-22 16:19 43.62002 11.31966 18702 ft 407 kts 158°
2026-04-22 16:19 43.59376 11.33607 19254 ft 412 kts 159°
2026-04-22 16:19 43.56872 11.35172 19768 ft 417 kts 159°
2026-04-22 16:19 43.54215 11.36863 20329 ft 423 kts 158°
2026-04-22 16:20 43.51569 11.38702 20859 ft 429 kts 156°
2026-04-22 16:20 43.48918 11.40670 21377 ft 435 kts 155°
2026-04-22 16:20 43.46261 11.42712 21914 ft 440 kts 155°
2026-04-22 16:20 43.43580 11.44792 22448 ft 445 kts 155°
2026-04-22 16:21 43.40868 11.46874 22988 ft 449 kts 156°
2026-04-22 16:21 43.38116 11.48954 23534 ft 453 kts 156°
2026-04-22 16:21 43.35338 11.51028 24007 ft 457 kts 157°
2026-04-22 16:21 43.32528 11.53109 24487 ft 459 kts 157°
2026-04-22 16:22 43.26869 11.57282 25419 ft 464 kts 157°
2026-04-22 16:22 43.24014 11.59383 25881 ft 467 kts 157°
2026-04-22 16:22 43.21147 11.61497 26324 ft 469 kts 157°
2026-04-22 16:23 43.15374 11.65759 27189 ft 474 kts 157°
2026-04-22 16:23 43.12466 11.67907 27605 ft 476 kts 157°
2026-04-22 16:23 43.09548 11.70061 28023 ft 478 kts 157°
2026-04-22 16:24 43.06615 11.72220 28425 ft 480 kts 157°
2026-04-22 16:24 43.00704 11.76555 29212 ft 484 kts 158°
2026-04-22 16:24 42.97730 11.78731 29605 ft 486 kts 157°
2026-04-22 16:25 42.94747 11.80913 29967 ft 488 kts 157°
2026-04-22 16:25 42.88815 11.85261 30601 ft 491 kts 157°
2026-04-22 16:25 42.85760 11.87496 30896 ft 493 kts 157°
2026-04-22 16:26 42.82732 11.89703 31187 ft 495 kts 157°
2026-04-22 16:26 42.79689 11.91919 31450 ft 497 kts 157°
2026-04-22 16:26 42.76636 11.94140 31714 ft 499 kts 157°
2026-04-22 16:26 42.73577 11.96362 32021 ft 499 kts 157°
2026-04-22 16:27 42.70543 11.98564 32395 ft 498 kts 157°
2026-04-22 16:27 42.67488 12.00776 32732 ft 497 kts 157°
2026-04-22 16:27 42.64436 12.02978 33076 ft 497 kts 158°
2026-04-22 16:27 42.61260 12.04896 33430 ft 490 kts 166°
2026-04-22 16:28 42.58020 12.06233 33781 ft 484 kts 172°
2026-04-22 16:28 42.54759 12.07373 34085 ft 484 kts 172°
2026-04-22 16:28 42.51492 12.08521 34359 ft 484 kts 172°
2026-04-22 16:28 42.48234 12.09673 34664 ft 483 kts 172°
2026-04-22 16:29 42.44986 12.10822 34977 ft 482 kts 172°
2026-04-22 16:29 42.41852 12.11929 35268 ft 481 kts 172°
2026-04-22 16:29 42.38618 12.13071 35557 ft 480 kts 172°
2026-04-22 16:29 42.35393 12.14208 35855 ft 479 kts 171°
2026-04-22 16:30 42.33260 12.14960 36036 ft 478 kts 171°
2026-04-22 16:30 42.28962 12.16470 36387 ft 476 kts 172°
2026-04-22 16:30 42.25762 12.17591 36644 ft 475 kts 171°
2026-04-22 16:30 42.22558 12.18711 36877 ft 474 kts 171°
2026-04-22 16:31 42.19365 12.19829 37121 ft 473 kts 171°
2026-04-22 16:31 42.16428 12.20862 37376 ft 473 kts 171°
2026-04-22 16:31 42.13238 12.21986 37616 ft 472 kts 171°
2026-04-22 16:31 42.10070 12.23095 37860 ft 470 kts 171°
2026-04-22 16:32 42.06906 12.24195 38114 ft 469 kts 171°
2026-04-22 16:32 42.03748 12.25290 38338 ft 468 kts 171°
2026-04-22 16:32 42.00597 12.26383 38556 ft 467 kts 171°
2026-04-22 16:32 41.97452 12.27475 38762 ft 466 kts 171°
2026-04-22 16:33 41.94318 12.28565 38953 ft 465 kts 171°
2026-04-22 16:33 41.91309 12.29613 39072 ft 465 kts 171°
2026-04-22 16:33 41.85145 12.31746 39028 ft 465 kts 171°
2026-04-22 16:34 41.78895 12.33900 39028 ft 464 kts 171°
2026-04-22 16:34 41.72640 12.36058 39029 ft 464 kts 171°
2026-04-22 16:35 41.66395 12.38209 39028 ft 463 kts 171°
2026-04-22 16:35 41.60146 12.40355 39029 ft 463 kts 171°
2026-04-22 16:36 41.53909 12.42496 39027 ft 463 kts 171°
2026-04-22 16:36 41.47664 12.44633 39037 ft 462 kts 171°
2026-04-22 16:37 41.41433 12.46760 39039 ft 462 kts 171°
2026-04-22 16:37 41.35213 12.48887 39033 ft 461 kts 171°
2026-04-22 16:38 41.28982 12.51003 39047 ft 461 kts 171°
2026-04-22 16:38 41.22780 12.53219 39040 ft 465 kts 165°
2026-04-22 16:39 41.16886 12.56908 39026 ft 469 kts 158°
2026-04-22 16:39 41.11051 12.60806 39032 ft 469 kts 158°
2026-04-22 16:40 41.05215 12.64683 39044 ft 469 kts 158°
2026-04-22 16:41 40.96453 12.70473 39039 ft 469 kts 158°
2026-04-22 16:41 40.90615 12.74321 39046 ft 469 kts 158°
2026-04-22 16:42 40.84767 12.78158 39042 ft 469 kts 158°
2026-04-22 16:42 40.78936 12.81994 39031 ft 469 kts 158°
2026-04-22 16:43 40.73102 12.85841 39035 ft 469 kts 158°
2026-04-22 16:43 40.67261 12.89670 39032 ft 468 kts 158°
2026-04-22 16:44 40.61411 12.93485 39031 ft 469 kts 158°
2026-04-22 16:44 40.55576 12.97294 39029 ft 468 kts 158°
2026-04-22 16:45 40.49753 13.01167 39027 ft 469 kts 156°
2026-04-22 16:45 40.44004 13.05246 39027 ft 469 kts 155°
2026-04-22 16:46 40.38274 13.09362 39023 ft 469 kts 156°
2026-04-22 16:46 40.32527 13.13425 39022 ft 469 kts 156°
2026-04-22 16:47 40.26771 13.17451 39014 ft 469 kts 156°
2026-04-22 16:47 40.21989 13.20786 39019 ft 468 kts 156°
2026-04-22 16:48 40.15264 13.25479 39012 ft 469 kts 156°
2026-04-22 16:48 40.09506 13.29494 39006 ft 469 kts 156°
2026-04-22 16:49 40.03745 13.33504 39006 ft 470 kts 156°
2026-04-22 16:49 39.97976 13.37510 39008 ft 469 kts 156°
2026-04-22 16:50 39.93188 13.40829 39006 ft 469 kts 156°
2026-04-22 16:50 39.87419 13.44816 39006 ft 469 kts 156°
2026-04-22 16:51 39.81613 13.48824 39003 ft 469 kts 156°
2026-04-22 16:51 39.75841 13.52801 39002 ft 469 kts 156°
2026-04-22 16:52 39.70073 13.56767 39003 ft 469 kts 156°
2026-04-22 16:52 39.64302 13.60727 39004 ft 469 kts 156°
2026-04-22 16:53 39.58533 13.64680 39003 ft 469 kts 156°
2026-04-22 16:53 39.52765 13.68629 38998 ft 469 kts 156°
2026-04-22 16:54 39.46996 13.72575 38998 ft 469 kts 156°
2026-04-22 16:54 39.41227 13.76501 38997 ft 468 kts 156°
2026-04-22 16:55 39.35477 13.80405 38992 ft 468 kts 156°
2026-04-22 16:55 39.29709 13.84324 38996 ft 468 kts 156°
2026-04-22 16:56 39.23944 13.88235 38996 ft 468 kts 156°
2026-04-22 16:56 39.18183 13.92139 38997 ft 467 kts 156°
2026-04-22 16:57 39.12424 13.96030 38999 ft 467 kts 156°
2026-04-22 16:57 39.06665 13.99907 38995 ft 467 kts 156°
2026-04-22 16:58 39.00904 14.03775 38668 ft 466 kts 156°
2026-04-22 16:58 38.98032 14.05701 38378 ft 466 kts 156°
2026-04-22 16:58 38.95153 14.07633 38020 ft 467 kts 156°
2026-04-22 16:58 38.92228 14.09594 37229 ft 468 kts 156°
2026-04-22 16:59 38.89337 14.11532 36422 ft 470 kts 156°
2026-04-22 16:59 38.86438 14.13473 35824 ft 467 kts 157°
2026-04-22 16:59 38.83572 14.15392 35340 ft 462 kts 157°
2026-04-22 16:59 38.80710 14.17237 34815 ft 458 kts 159°
2026-04-22 17:00 38.77849 14.18989 34285 ft 454 kts 160°
2026-04-22 17:00 38.72148 14.22337 33225 ft 447 kts 161°
2026-04-22 17:00 38.69336 14.23981 32725 ft 442 kts 160°
2026-04-22 17:01 38.66552 14.25622 32222 ft 439 kts 160°
2026-04-22 17:01 38.63792 14.27264 31732 ft 435 kts 160°
2026-04-22 17:01 38.61083 14.28889 31248 ft 432 kts 160°
2026-04-22 17:01 38.58368 14.30525 30773 ft 429 kts 160°
2026-04-22 17:02 38.55679 14.32143 30302 ft 426 kts 160°
2026-04-22 17:02 38.53009 14.33743 29814 ft 422 kts 160°
2026-04-22 17:02 38.50360 14.35328 29355 ft 418 kts 160°
2026-04-22 17:02 38.47747 14.36891 28918 ft 413 kts 160°
2026-04-22 17:03 38.45118 14.38341 28142 ft 411 kts 169°
2026-04-22 17:03 38.42308 14.38925 27267 ft 408 kts 182°
2026-04-22 17:03 38.39493 14.39156 26821 ft 403 kts 181°
2026-04-22 17:03 38.36706 14.39419 26343 ft 400 kts 181°
2026-04-22 17:04 38.33939 14.39695 25851 ft 398 kts 181°
2026-04-22 17:04 38.31191 14.39967 25356 ft 395 kts 181°
2026-04-22 17:04 38.28458 14.40234 24843 ft 393 kts 181°
2026-04-22 17:04 38.25738 14.40495 24340 ft 391 kts 180°
2026-04-22 17:05 38.23030 14.40755 23822 ft 390 kts 180°
2026-04-22 17:05 38.20330 14.41012 23245 ft 389 kts 180°
2026-04-22 17:05 38.17640 14.41270 22738 ft 386 kts 180°
2026-04-22 17:05 38.14976 14.41524 22224 ft 383 kts 180°
2026-04-22 17:06 38.12331 14.41774 21723 ft 380 kts 180°
2026-04-22 17:06 38.09703 14.42020 21235 ft 377 kts 180°
2026-04-22 17:06 38.07122 14.42263 20753 ft 375 kts 180°
2026-04-22 17:06 38.04495 14.42512 20260 ft 373 kts 180°
2026-04-22 17:07 38.01915 14.42757 19785 ft 371 kts 180°
2026-04-22 17:07 37.99350 14.43001 19306 ft 369 kts 179°
2026-04-22 17:07 37.96822 14.43239 18843 ft 368 kts 179°
2026-04-22 17:07 37.94241 14.43477 18371 ft 366 kts 179°
2026-04-22 17:08 37.91708 14.43711 17862 ft 364 kts 179°
2026-04-22 17:08 37.89192 14.43944 17399 ft 362 kts 179°
2026-04-22 17:08 37.86687 14.44179 16953 ft 359 kts 179°
2026-04-22 17:08 37.84213 14.44414 16508 ft 357 kts 179°
2026-04-22 17:09 37.81739 14.44648 16065 ft 355 kts 179°
2026-04-22 17:09 37.79283 14.44880 15633 ft 353 kts 179°
2026-04-22 17:09 37.77666 14.45032 15346 ft 351 kts 179°
2026-04-22 17:09 37.74421 14.45333 14767 ft 348 kts 179°
2026-04-22 17:10 37.72015 14.45554 14348 ft 346 kts 179°
2026-04-22 17:10 37.69613 14.45779 13963 ft 343 kts 179°
2026-04-22 17:10 37.67237 14.46022 13486 ft 343 kts 176°
2026-04-22 17:10 37.64986 14.46976 13058 ft 346 kts 149°
2026-04-22 17:11 37.63302 14.49109 12601 ft 347 kts 121°
2026-04-22 17:11 37.62575 14.51972 12135 ft 344 kts 92°
2026-04-22 17:11 37.62698 14.54963 11664 ft 341 kts 83°
2026-04-22 17:11 37.62911 14.57933 11211 ft 339 kts 83°
2026-04-22 17:12 37.63120 14.60844 11065 ft 327 kts 83°
2026-04-22 17:12 37.63317 14.63652 10939 ft 316 kts 83°
2026-04-22 17:12 37.63504 14.66361 10817 ft 305 kts 83°
2026-04-22 17:12 37.63670 14.68962 10671 ft 290 kts 87°
2026-04-22 17:13 37.63318 14.71398 10245 ft 281 kts 117°
2026-04-22 17:13 37.62114 14.73257 9934 ft 273 kts 147°
2026-04-22 17:13 37.60405 14.74182 9657 ft 266 kts 174°
2026-04-22 17:13 37.58578 14.74482 9407 ft 264 kts 176°
2026-04-22 17:14 37.56757 14.74681 9160 ft 260 kts 189°
2026-04-22 17:14 37.55119 14.73981 8928 ft 243 kts 219°
2026-04-22 17:14 37.54044 14.72465 8735 ft 226 kts 247°
2026-04-22 17:14 37.53653 14.70592 8548 ft 216 kts 266°
2026-04-22 17:15 37.53554 14.69340 8428 ft 217 kts 266°
2026-04-22 17:15 37.53336 14.66810 8178 ft 217 kts 265°
2026-04-22 17:15 37.53169 14.64919 7987 ft 217 kts 265°
2026-04-22 17:15 37.52999 14.63026 7873 ft 217 kts 265°
2026-04-22 17:16 37.52831 14.61134 7772 ft 217 kts 265°
2026-04-22 17:16 37.52664 14.59241 7672 ft 218 kts 265°
2026-04-22 17:16 37.52496 14.57350 7565 ft 218 kts 265°
2026-04-22 17:16 37.52329 14.55452 7456 ft 218 kts 265°
2026-04-22 17:17 37.52161 14.53561 7348 ft 217 kts 265°
2026-04-22 17:17 37.51994 14.51666 7239 ft 217 kts 265°
2026-04-22 17:17 37.51826 14.49779 7129 ft 217 kts 265°
2026-04-22 17:17 37.51657 14.47887 7015 ft 217 kts 265°
2026-04-22 17:18 37.51303 14.46058 6910 ft 218 kts 242°
2026-04-22 17:18 37.50236 14.44708 6785 ft 224 kts 208°
2026-04-22 17:18 37.48709 14.44331 6661 ft 230 kts 176°
2026-04-22 17:18 37.47116 14.44562 6549 ft 230 kts 175°
2026-04-22 17:19 37.43947 14.45061 6317 ft 229 kts 168°
2026-04-22 17:19 37.41751 14.47754 6057 ft 232 kts 101°
2026-04-22 17:20 37.41907 14.51637 5827 ft 230 kts 81°
2026-04-22 17:20 37.42271 14.55622 5593 ft 228 kts 82°
2026-04-22 17:21 37.42445 14.57601 5481 ft 227 kts 82°
2026-04-22 17:21 37.42784 14.61545 5266 ft 226 kts 82°
2026-04-22 17:22 37.43129 14.65455 5050 ft 224 kts 82°
2026-04-22 17:22 37.43300 14.67403 4852 ft 224 kts 82°
2026-04-22 17:22 37.43638 14.71263 4309 ft 221 kts 82°
2026-04-22 17:23 37.43752 14.72559 4133 ft 221 kts 82°
2026-04-22 17:23 37.44085 14.76377 3810 ft 219 kts 82°
2026-04-22 17:23 37.44250 14.78282 3716 ft 219 kts 82°
2026-04-22 17:24 37.44416 14.80189 3607 ft 219 kts 83°
2026-04-22 17:24 37.44581 14.82093 3421 ft 219 kts 83°
2026-04-22 17:24 37.44744 14.83989 3288 ft 218 kts 83°
2026-04-22 17:24 37.44908 14.85885 3085 ft 217 kts 83°
2026-04-22 17:25 37.45070 14.87765 2825 ft 215 kts 83°
2026-04-22 17:25 37.45231 14.89636 2546 ft 215 kts 84°
2026-04-22 17:25 37.45390 14.91497 2269 ft 212 kts 84°
2026-04-22 17:25 37.45544 14.93289 1963 ft 199 kts 84°
2026-04-22 17:26 37.45686 14.94944 1702 ft 183 kts 84°
2026-04-22 17:26 37.45816 14.96466 1465 ft 168 kts 85°
2026-04-22 17:26 37.45934 14.97853 1253 ft 151 kts 84°
2026-04-22 17:26 37.46040 14.99103 1092 ft 138 kts 84°
2026-04-22 17:27 37.46138 15.00259 905 ft 128 kts 84°
2026-04-22 17:27 37.46235 15.01382 709 ft 130 kts 83°
2026-04-22 17:27 37.46335 15.02513 544 ft 130 kts 83°
2026-04-22 17:27 37.46421 15.03627 363 ft 127 kts 82°
2026-04-22 17:28 37.46520 15.04737 174 ft 127 kts 83°
2026-04-22 17:28 37.46581 15.05477 74 ft 121 kts 83°
2026-04-22 17:28 37.46650 15.06274 40 ft 52 kts 84°
2026-04-22 17:28 37.46668 15.06515 39 ft 26 kts 85°
2026-04-22 17:29 37.46682 15.06780 36 ft 32 kts 79°
2026-04-22 17:29 37.46749 15.06929 35 ft 11 kts 359°
2026-04-22 17:29 37.46805 15.06897 33 ft 9 kts 338°
2026-04-22 17:29 37.46850 15.06847 32 ft 8 kts 284°
2026-04-22 17:30 37.46855 15.06785 33 ft 6 kts 269°
2026-04-22 17:30 37.46849 15.06695 33 ft 14 kts 265°
2026-04-22 17:30 37.46862 15.06611 34 ft 4 kts 344°
2026-04-22 17:30 37.46915 15.06620 33 ft 7 kts 19°
2026-04-22 17:31 37.46927 15.06625 32 ft 0 kts 20°